• Join FlightAware (Why Join?)
  • Login
  • US Flag 
02:19PM EST


 

Airport Tracker/Info


-or-


 

Live Flight TrackerFlight Track Log ✈ N682RW ✈ 15-May-2013 ✈ KMDW - KDTW

Flight Track Log - Related Links

Times and Time Zones

All times are in EDT time to prevent confusion due to time zone crossing. See the N682RW flight status page for this flight to view local times or setup timezone preferences in your user account.

Time Position Orientation Groundspeed Altitude Reporting Facility
EDT Latitude Longitude Course Direction KTS MPH feet Rate Location/Type
12:39AM 41.8000 -87.6000 90° East 286 329 4,500  Level Chicago TRACON
12:40AM 41.7981 -87.5664 94° East 265 305 5,200 2,860 Climbing Chicago Center
12:41AM 41.7981 -87.4533 90° East 299 344 8,600 3,124 Climbing Chicago Center
12:42AM 41.7964 -87.3325 91° East 323 372 11,500 2,777 Climbing Chicago Center
12:43AM 41.7939 -87.2058 91° East 340 391 14,200 2,083 Climbing Chicago Center
12:44AM 41.7889 -87.0622 93° East 389 448 15,700 1,983 Climbing Chicago Center
12:45AM 41.7825 -86.9053 93° East 425 489 18,200 1,636 Climbing Chicago Center
12:46AM 41.7869 -86.7425 88° East 442 509 19,000 400 Climbing Chicago Center
12:47AM 41.8219 -86.5586 76° East 442 509 19,000  Level Chicago Center
12:48AM 41.8439 -86.3975 80° East 440 506 19,000  Level Chicago Center
12:49AM 41.8644 -86.2361 80° East 440 506 19,000  Level Chicago Center
12:50AM 41.8875 -86.0739 79° East 442 509 19,000  Level Chicago Center
12:51AM 41.9089 -85.9097 80° East 445 512 19,000  Level Chicago Center
12:52AM 41.9300 -85.7461 80° East 444 511 19,000  Level Chicago Center
12:53AM 41.9519 -85.5822 80° East 443 510 19,000  Level Chicago Center
12:54AM 41.9728 -85.4186 80° East 441 507 19,000  Level Chicago Center
12:55AM 41.9961 -85.2525 79° East 441 507 19,000  Level Cleveland Center
12:56AM 42.0153 -85.0861 81° East 446 513 19,000  Level Cleveland Center
12:57AM 42.0342 -84.9253 81° East 441 507 19,000  Level Cleveland Center
12:58AM 42.0547 -84.7617 80° East 441 507 19,000 -450 Level Cleveland Center
12:59AM 42.0753 -84.5950 81° East 446 513 18,100 -1,200 Descending Cleveland Center
01:00AM 42.0933 -84.4367 81° East 446 513 16,600 -1,698 Descending Cleveland Center
01:01AM 42.1058 -84.3086 82° East 416 479 15,100 -2,229 Descending Cleveland Center
01:02AM 42.1231 -84.1583 81° East 407 468 12,700 -2,189 Descending Cleveland Center
01:02AM 42.1239 -84.1306 88° East 419 482 12,400 -1,700 Descending Cleveland Center
01:03AM 42.1425 -84.0028 79° East 398 458 11,000 -1,400 Descending Cleveland Center
01:03AM 42.1408 -83.9858 98° East 401 461 11,000 -689 Level Cleveland Center
01:04AM 42.1694 -83.8694 72° East 358 412 10,300 -1,075 Descending Cleveland Center
01:05AM 42.1997 -83.7506 71° East 323 372 9,100 -1,388 Descending Cleveland Center
01:06AM 42.2297 -83.6400 70° East 314 361 7,500 -1,426 Descending Cleveland Center
01:07AM 42.2861 -83.5639 45° Northeast 268 308 6,200 -1,289 Descending Cleveland Center
01:08AM 42.3375 -83.5075 39° Northeast 225 259 4,900 -1,190 Descending Cleveland Center
01:09AM 42.3561 -83.4353 71° East 214 246 3,800 -991 Descending Cleveland Center
01:10AM 42.3408 -83.3700 108° East 194 223 3,000 -686 Descending Cleveland Center
01:10AM 42.3369 -83.3586 115° Southeast 181 208 3,000 -885 Level Cleveland Center
01:11AM 42.3003 -83.3289 149° Southeast 195 224 2,100 -906 Descending Cleveland Center
01:12AM 42.2561 -83.3464 196° South 159 183 1,400 -689 Descending Cleveland Center